Latest Weather Observations for Perth

IDW60901

Issued at 4:15 pm WST Monday 24 November 2014 (issued every 10 minutes, with the page automatically refreshed every 10 minutes)

About weather observations | Map of Perth area stations | Latest observations for Perth area | Other Formats
Station Details ID: 009225 Name: PERTH METRO Lat: -31.92 Lon: 115.87 Height: 24.9 m
Data from the previous 72 hours. | See also: Recent months at Perth
Date/Time
WST
Tmp

°C
App
Tmp
°C
Dew
Point
°C
Rel
Hum
%
Delta-T

°C
Wind Press
QNH
hPa
Press
MSL
hPa
Rain
since
9 am
mm
Dir
 
Spd
km/h
Gust
km/h
Spd
kts
Gust
kts
24/04:00pm 22.3 18.8 10.8 48 6.3 SW 20 33 11 18 1017.8 1017.7 0.0
24/03:30pm 22.8 18.9 10.9 47 6.6 SW 22 33 12 18 1018.0 1017.9 0.0
24/03:00pm 23.4 19.6 9.8 42 7.4 SW 20 30 11 16 1018.2 1018.1 0.0
24/02:30pm 25.4 22.3 10.4 39 8.4 SSW 17 26 9 14 1018.4 1018.3 0.0
24/02:00pm 24.9 21.9 9.2 37 8.5 SSW 15 20 8 11 1018.6 1018.5 0.0
24/01:30pm 26.1 23.0 5.7 27 10.5 SSE 11 17 6 9 1018.8 1018.7 0.0
24/01:00pm 25.3 22.5 5.0 27 10.2 SSE 9 20 5 11 1019.2 1019.1 0.0
24/12:30pm 24.8 21.5 6.5 31 9.5 SSE 13 20 7 11 1019.6 1019.5 0.0
24/12:00pm 24.5 22.1 7.2 33 9.0 E 9 20 5 11 1020.1 1020.0 0.0
24/11:30am 23.0 20.5 6.7 35 8.4 E 9 19 5 10 1020.5 1020.4 0.0
24/11:00am 22.7 20.0 7.3 37 8.0 E 11 20 6 11 1020.9 1020.8 0.0
24/10:30am 21.7 19.3 6.8 38 7.6 ESE 9 15 5 8 1021.3 1021.2 0.0
24/10:00am 20.9 18.0 6.4 39 7.3 ESE 11 20 6 11 1021.6 1021.5 0.0
24/09:30am 19.7 16.3 5.7 40 6.9 ESE 13 24 7 13 1021.8 1021.7 0.0
24/09:00am 19.2 16.1 7.3 46 6.0 E 13 20 7 11 1022.2 1022.1 0.0
24/08:30am 18.0 14.7 6.5 47 5.7 E 13 26 7 14 1022.4 1022.3 0.0
24/08:00am 16.7 13.4 6.5 51 5.0 E 13 24 7 13 1022.5 1022.4 0.0
24/07:30am 15.8 12.0 6.0 52 4.7 E 15 26 8 14 1022.4 1022.3 0.0
24/07:00am 15.1 12.1 6.1 55 4.3 E 11 26 6 14 1022.5 1022.4 0.0
24/06:30am 14.3 11.3 6.2 58 3.9 E 11 20 6 11 1022.3 1022.2 0.0
24/06:00am 13.2 10.5 5.4 59 3.6 ESE 9 17 5 9 1022.3 1022.2 0.0
24/05:30am 12.5 10.1 5.4 62 3.3 ESE 7 13 4 7 1022.1 1022.0 0.0
24/05:00am 12.4 9.2 5.3 62 3.3 SE 11 17 6 9 1021.8 1021.7 0.0
24/04:30am 12.2 9.4 5.1 62 3.3 SE 9 17 5 9 1021.4 1021.3 0.0
24/04:00am 12.4 9.5 6.5 67 2.8 SE 11 19 6 10 1021.2 1021.1 0.0
24/03:30am 12.8 9.0 5.9 63 3.3 SSE 15 22 8 12 1021.2 1021.1 0.0
24/03:00am 12.4 9.4 5.8 64 3.1 SSE 11 19 6 10 1021.0 1020.9 0.0
24/02:30am 12.6 9.6 6.2 65 3.0 SSE 11 19 6 10 1020.8 1020.7 0.0
24/02:00am 12.8 9.9 6.4 65 3.0 SSE 11 17 6 9 1020.8 1020.7 0.0
24/01:30am 12.9 10.0 6.7 66 3.0 S 11 17 6 9 1020.8 1020.7 0.0
24/01:00am 13.2 10.0 6.8 65 3.1 S 13 19 7 10 1020.7 1020.6 0.0
24/12:30am 13.6 10.4 6.9 64 3.2 S 13 19 7 10 1020.5 1020.4 0.0
24/12:00am 14.1 10.5 6.9 62 3.5 S 15 24 8 13 1020.5 1020.4 0.0
 
Date/Time
WST
Tmp

°C
App
Tmp
°C
Dew
Point
°C
Rel
Hum
%
Delta-T

°C
Wind Press
QNH
hPa
Press
MSL
hPa
Rain
since
9 am
mm
Dir
 
Spd
km/h
Gust
km/h
Spd
kts
Gust
kts
23/11:30pm 14.4 11.2 7.0 61 3.6 S 13 22 7 12 1020.4 1020.3 0.0
23/11:00pm 15.0 11.9 7.1 59 3.9 S 13 19 7 10 1020.4 1020.3 0.0
23/10:30pm 15.7 11.4 7.2 57 4.2 S 19 28 10 15 1020.3 1020.2 0.0
23/10:00pm 16.4 12.4 8.1 58 4.2 S 19 28 10 15 1020.2 1020.1 0.0
23/09:30pm 16.8 14.7 9.7 63 3.7 S 11 24 6 13 1020.1 1020.0 0.0
23/09:00pm 17.0 14.7 10.4 65 3.5 S 13 22 7 12 1019.9 1019.8 0.0
23/08:30pm 17.0 14.6 10.1 64 3.6 S 13 22 7 12 1019.6 1019.5 0.0
23/08:00pm 17.2 14.4 10.1 63 3.7 SSW 15 22 8 12 1019.3 1019.2 0.0
23/07:30pm 17.4 14.3 10.3 63 3.8 SSW 17 28 9 15 1018.9 1018.8 0.0
23/07:00pm 17.5 14.2 9.7 60 4.1 SW 17 28 9 15 1018.6 1018.5 0.0
23/06:30pm 18.0 14.6 9.1 56 4.6 SW 17 33 9 18 1018.2 1018.1 0.0
23/06:00pm 18.8 14.9 8.5 51 5.3 SW 19 30 10 16 1017.8 1017.7 0.0
23/05:30pm 19.3 15.5 8.9 51 5.4 SW 19 35 10 19 1017.5 1017.4 0.0
23/05:00pm 20.0 16.2 9.0 49 5.8 SSW 19 35 10 19 1017.5 1017.4 0.0
23/04:30pm 20.3 16.3 9.2 49 5.9 SW 20 39 11 21 1017.2 1017.1 0.0
23/04:00pm 20.3 16.0 9.2 49 5.9 SSW 22 35 12 19 1017.1 1017.0 0.0
23/03:30pm 20.9 17.2 9.5 48 6.1 SSW 19 30 10 16 1017.0 1016.9 0.0
23/03:00pm 20.9 17.1 9.2 47 6.2 SSW 19 39 10 21 1016.9 1016.8 0.0
23/02:30pm 21.7 18.4 10.8 50 6.0 SSW 19 33 10 18 1017.0 1016.9 0.0
23/02:00pm 21.5 18.2 10.9 51 5.8 SW 19 32 10 17 1017.1 1017.0 0.0
23/01:30pm 21.0 17.5 10.2 50 5.9 SW 19 28 10 15 1017.3 1017.2 0.0
23/01:00pm 21.3 17.1 8.2 43 6.8 SW 20 30 11 16 1017.3 1017.2 0.0
23/12:30pm 21.3 17.3 10.5 50 5.9 SW 22 32 12 17 1017.5 1017.4 0.0
23/12:00pm 21.6 18.7 11.0 51 5.8 SW 17 26 9 14 1017.7 1017.6 0.0
23/11:30am 20.6 17.8 11.2 55 5.2 WSW 17 28 9 15 1017.7 1017.6 0.0
23/11:00am 21.6 18.1 10.1 48 6.2 SSW 19 28 10 15 1017.7 1017.6 0.0
23/10:30am 21.2 17.3 9.4 47 6.3 WSW 20 28 11 15 1017.8 1017.7 0.0
23/10:00am 21.8 18.6 11.2 51 5.9 SSW 19 32 10 17 1017.6 1017.5 0.0
23/09:30am 21.3 17.7 9.9 48 6.2 SSW 19 30 10 16 1017.5 1017.4 0.0
23/09:00am 19.5 16.8 10.5 56 4.9 SW 15 30 8 16 1017.5 1017.4 0.0
23/08:30am 19.5 17.1 11.5 60 4.4 SSW 15 24 8 13 1017.5 1017.4 0.0
23/08:00am 18.7 16.3 11.5 63 3.9 SW 15 32 8 17 1017.5 1017.4 0.0
23/07:30am 18.8 15.6 11.4 62 4.1 SSW 19 32 10 17 1017.0 1016.9 0.0
23/07:00am 18.9 15.6 9.4 54 5.0 SW 17 28 9 15 1016.6 1016.5 0.0
23/06:30am 18.5 16.9 10.1 58 4.5 SW 9 17 5 9 1016.3 1016.2 0.0
23/06:00am 17.1 14.5 9.5 61 4.0 SW 13 26 7 14 1016.0 1015.9 0.0
23/05:30am 17.2 14.7 9.6 61 4.0 SW 13 20 7 11 1015.6 1015.5 0.0
23/05:00am 17.3 14.4 9.7 61 4.0 SW 15 24 8 13 1015.3 1015.2 0.0
23/04:30am 16.7 14.4 9.1 61 3.9 SW 11 17 6 9 1015.1 1015.0 0.0
23/04:00am 17.2 14.3 9.6 61 4.0 SW 15 26 8 14 1014.9 1014.8 0.0
23/03:30am 17.2 14.7 9.6 61 4.0 SW 13 22 7 12 1014.8 1014.7 0.0
23/03:00am 17.3 13.9 9.2 59 4.2 SW 17 28 9 15 1014.7 1014.6 0.0
23/02:30am 17.3 14.7 9.5 60 4.1 SW 13 28 7 15 1014.6 1014.5 0.0
23/02:00am 16.9 14.0 8.1 56 4.5 SW 13 20 7 11 1014.6 1014.5 0.0
23/01:30am 17.3 14.3 9.2 59 4.2 SW 15 28 8 15 1014.7 1014.6 0.0
23/01:00am 17.5 14.4 10.4 63 3.8 SW 17 30 9 16 1014.9 1014.8 0.0
23/12:30am 17.8 15.6 10.7 63 3.8 SW 13 28 7 15 1015.0 1014.9 0.0
23/12:00am 17.7 16.3 11.0 65 3.6 SW 9 19 5 10 1015.1 1015.0 0.0
 
Date/Time
WST
Tmp

°C
App
Tmp
°C
Dew
Point
°C
Rel
Hum
%
Delta-T

°C
Wind Press
QNH
hPa
Press
MSL
hPa
Rain
since
9 am
mm
Dir
 
Spd
km/h
Gust
km/h
Spd
kts
Gust
kts
22/11:30pm 17.5 15.1 11.3 67 3.4 SW 15 24 8 13 1015.2 1015.1 0.0
22/11:00pm 17.6 15.8 12.1 70 3.0 SW 13 24 7 13 1015.3 1015.2 0.0
22/10:30pm 17.7 16.5 12.8 73 2.7 SW 11 17 6 9 1015.5 1015.4 0.0
22/10:00pm 17.6 16.0 12.7 73 2.7 SW 13 19 7 10 1015.7 1015.6 0.0
22/09:30pm 17.5 16.4 13.0 75 2.5 SW 11 19 6 10 1015.7 1015.6 0.0
22/09:00pm 17.2 16.5 13.3 78 2.2 SSW 9 17 5 9 1015.5 1015.4 0.0
22/08:30pm 17.4 16.7 13.3 77 2.3 SSW 9 20 5 11 1015.5 1015.4 0.0
22/08:00pm 17.2 16.5 13.3 78 2.2 SW 9 19 5 10 1015.4 1015.3 0.0
22/07:30pm 17.4 15.8 12.9 75 2.5 SW 13 20 7 11 1015.1 1015.0 0.0
22/07:00pm 18.0 15.9 12.5 70 3.1 SW 15 24 8 13 1015.0 1014.9 0.0
22/06:30pm 18.3 15.9 11.4 64 3.8 SW 15 22 8 12 1014.9 1014.8 0.0
22/06:00pm 19.0 16.1 11.1 60 4.3 WSW 17 24 9 13 1014.6 1014.5 0.0
22/05:30pm 19.9 17.6 11.7 59 4.5 SW 15 28 8 15 1014.4 1014.3 0.0
22/05:00pm 20.0 16.9 11.7 59 4.6 SW 19 32 10 17 1014.4 1014.3 0.0
22/04:30pm 21.1 17.8 9.7 48 6.1 WSW 17 28 9 15 1014.4 1014.3 0.0
22/04:00pm 21.5 18.2 9.7 47 6.4 SW 17 28 9 15 1014.4 1014.3 0.0
22/03:30pm 21.9 18.7 10.1 47 6.4 WSW 17 28 9 15 1014.3 1014.2 0.0
22/03:00pm 22.0 18.6 10.5 48 6.3 WSW 19 32 10 17 1014.1 1014.0 0.0
22/02:30pm 22.2 18.9 11.0 49 6.2 SW 19 28 10 15 1014.1 1014.0 0.0
22/02:00pm 21.5 18.0 10.3 49 6.1 SW 19 28 10 15 1014.2 1014.1 0.0
22/01:30pm 22.6 20.4 10.7 47 6.6 WSW 13 24 7 13 1014.2 1014.1 0.0
22/01:00pm 22.0 19.2 9.9 46 6.6 WSW 15 26 8 14 1014.3 1014.2 0.0
22/12:30pm 22.4 19.5 10.9 48 6.4 SW 17 26 9 14 1014.3 1014.2 0.0
22/12:00pm 22.5 20.1 11.3 49 6.2 W 15 22 8 12 1014.3 1014.2 0.0
22/11:30am 21.6 19.3 11.9 54 5.4 WSW 15 28 8 15 1014.3 1014.2 0.0
22/11:00am 20.7 18.5 10.8 53 5.4 SSW 13 28 7 15 1014.3 1014.2 0.0
22/10:30am 21.2 19.5 12.3 57 5.0 SW 13 19 7 10 1014.4 1014.3 0.0
22/10:00am 20.6 19.1 11.8 57 4.9 SW 11 20 6 11 1014.4 1014.3 0.0
22/09:30am 18.8 16.8 11.6 63 4.0 SW 13 22 7 12 1014.5 1014.4 0.0
22/09:00am 19.6 19.2 12.4 63 4.0 SSW 6 13 3 7 1014.3 1014.2 1.0
22/08:30am 17.9 18.4 14.0 78 2.2 NNE 4 7 2 4 1014.2 1014.1 1.0
22/08:00am 16.5 16.7 14.3 87 1.3 NNE 6 6 3 3 1014.2 1014.1 1.0
22/07:30am 16.2 16.1 14.0 87 1.2 NW 7 11 4 6 1014.3 1014.2 0.8
22/07:00am 16.1 16.7 13.2 83 1.6 ENE 2 7 1 4 1013.9 1013.8 0.2
22/06:30am 15.7 16.6 13.0 84 1.5 CALM 0 0 0 0 1013.6 1013.5 0.2
22/06:00am 15.0 16.0 13.2 89 1.0 CALM 0 7 0 4 1013.4 1013.3 0.2
22/05:30am 14.2 15.1 12.9 92 0.7 CALM 0 0 0 0 1013.3 1013.2 0.2
22/05:00am 13.8 14.6 12.4 91 0.8 CALM 0 0 0 0 1012.9 1012.8 0.2
22/04:30am 13.8 14.6 12.4 91 0.8 CALM 0 0 0 0 1012.6 1012.5 0.2
22/04:00am 14.4 15.1 12.3 87 1.1 CALM 0 0 0 0 1012.5 1012.4 0.2
22/03:30am 15.5 15.9 12.4 82 1.7 SSW 2 9 1 5 1012.5 1012.4 0.2
22/03:00am 16.2 15.3 12.6 79 2.0 SW 9 19 5 10 1012.4 1012.3 0.2
22/02:30am 16.2 14.7 12.0 76 2.3 SSW 11 20 6 11 1012.3 1012.2 0.2
22/02:00am 16.9 15.4 12.0 73 2.7 SW 11 17 6 9 1012.4 1012.3 0.2
22/01:30am 16.9 15.6 12.4 75 2.5 SW 11 20 6 11 1012.4 1012.3 0.2
22/01:00am 17.0 16.1 12.5 75 2.5 SW 9 17 5 9 1012.5 1012.4 0.2
22/12:30am 17.0 16.3 11.5 70 3.0 SW 6 11 3 6 1012.6 1012.5 0.2
22/12:00am 17.1 16.5 12.4 74 2.6 SW 7 15 4 8 1012.7 1012.6 0.2
 
Date/Time
WST
Tmp

°C
App
Tmp
°C
Dew
Point
°C
Rel
Hum
%
Delta-T

°C
Wind Press
QNH
hPa
Press
MSL
hPa
Rain
since
9 am
mm
Dir
 
Spd
km/h
Gust
km/h
Spd
kts
Gust
kts
21/11:30pm 16.7 16.9 13.0 79 2.1 SW 4 7 2 4 1013.0 1012.9 0.2
21/11:00pm 17.5 16.4 12.0 70 3.0 SW 9 15 5 8 1013.0 1012.9 0.2
21/10:30pm 17.7 16.5 11.5 67 3.4 SW 9 13 5 7 1013.2 1013.1 0.2
21/10:00pm 17.6 16.0 11.4 67 3.4 SW 11 17 6 9 1013.3 1013.2 0.2
21/09:30pm 18.0 16.0 11.6 66 3.5 WSW 13 20 7 11 1013.4 1013.3 0.2
21/09:00pm 17.8 16.1 12.5 71 2.9 SW 13 24 7 13 1013.2 1013.1 0.2
21/08:30pm 17.7 16.7 11.0 65 3.6 SW 7 11 4 6 1013.0 1012.9 0.2
21/08:00pm 17.9 16.5 10.8 63 3.8 WSW 9 13 5 7 1012.8 1012.7 0.2
21/07:30pm 18.1 17.0 10.7 62 4.0 WSW 7 15 4 8 1012.7 1012.6 0.2
21/07:00pm 18.3 16.1 10.7 61 4.1 WSW 13 20 7 11 1012.6 1012.5 0.2
21/06:30pm 19.0 17.1 10.6 58 4.5 WSW 11 15 6 8 1012.4 1012.3 0.2
21/06:00pm 19.6 17.0 10.6 56 4.9 WSW 15 24 8 13 1011.9 1011.9 0.2
21/05:30pm 19.7 16.9 10.1 54 5.2 WSW 15 22 8 12 1012.0 1012.0 0.2
21/05:00pm 20.8 18.9 11.7 56 5.1 WSW 13 24 7 13 1011.7 1011.7 0.2
21/04:30pm 20.4 18.3 11.3 56 5.0 WSW 13 26 7 14 1012.0 1012.0 0.2

Latest Capital City Observations: Canberra | Sydney | Melbourne | Brisbane | Adelaide | Perth | Hobart | Darwin

Other Formats:

Comma delimited format used in spreadsheet applications
http://www.bom.gov.au/fwo/IDW60901/IDW60901.94608.axf

JavaScript Object Notation format (JSON) in row-major order
http://www.bom.gov.au/fwo/IDW60901/IDW60901.94608.json